STARLINK-32948, 63123

Orbit data source: Space-Track

STARLINK-32948, 63123 is a payload satellite owned by SpaceX/Seattle (US) in LEO that was launched on Thu, 27 Feb 2025 UTC via an FALCON 9 launch vehicle from the Air Force Eastern Test Range (AFETR). Payload-class satellites include a variety of spacecraft equipped with specific instruments for various scientific and technological missions. These include communications satellites like Starlink; space stations such as the ISS; scientific satellites like the Hubble; Earth observation satellites from companies like Planet Labs, Umbra, and HawkEye 360; GPS; miniature CubeSats for education and research; and military/defense satellites.

Loading next visibility...
Identifier
63123, 2025-039V
Orbit
LEO
Country
Flag of USUS
Related business
Manufacturer
SpaceX/Seattle
Mission
Operational Commercial Communications
Bus & Motor
STARLINK V2M, Unknown motor
Mass
730 kg wet, ~700 kg dry
Launch date (UTC)
2025-02-27 (1 year ago)
Launch vehicle
FALCON 9
Launch site
Air Force Eastern Test Range (AFETR)
Object type
Payload
Rocket body
Debris
Shape & HBR
Box + 2 Pan, 17.7 m
Radar Cross Section
33.884 m², Large (>1 m²)

Expand to show TLE details & history
Last TLE update: 18 hours ago

TLE from 18 hours ago
0 STARLINK-32948
1 63123U 25039V   26207.35168757  .00016389  00000-0  60364-3 0  9992
2 63123  43.0017 309.6661 0001658 259.2265 100.8400 15.27587185 79271
Epoch: 2026-07-26T08:26Z
TLE epoch observation values (Epoch: 2026-07-26T08:26:25.806Z)
Latitude
-0°
Longitude
-120.99229°
Altitude
483.017 km
Speed
7.626 km/s
True Right ascension
20h 38m 39s
True Declination
0° 00' 00"
Sunlit
Object was in full shadow at epoch
Visualization orbit readout
Latitude
Unknown
Longitude
Unknown
Altitude
Unknown
Speed
Unknown
Apparent Right ascension
Unknown
Apparent Declination
Unknown
Sunlit
N/A
Visualization observer readout
Local Sidereal Time
15:54:33
Azimuth
Unknown
Elevation
Unknown
Doppler factor
Unknown
Orbital elements
Apogee altitude
486.11 km
Perigee altitude
483.835 km
Semi-major axis
6,863.109 km
Eccentricity
0.00017
Inclination
43.0017°
RAAN
309.6661°
Arg. of periapsis
259.2265°
True anomaly
100.85866°
Mean anomaly
100.84°
Eccentric anomaly
100.84933°
Mean motion
3.81735 °/min
Orbital period
94.31 mins
BSTAR
0.00060364
Loading maneuver chart data...
Computing Atmospheric mass density...
Loading historical data...
Loading historical data...
Loading historical data...
Loading historical data...
Loading historical data...
Loading historical data...
Loading historical data...

Documentation

Showing up to 5 results
|